Presure
164 176 178 168 164 157 156 151 155 153 177 124 144 164 130 118 143 121 122 132 119 119 118 118 120 138 109 113 135 151 126 149 136 115 150 133 142 154 143 159 156 149 147 152 161
169 179 175 167 145 168 164 148 162 158 140 163 145 129 99 129 98 103 134 105 134 134 136 122 118 129 122 124 145 122 133 151 130 158 149 146 143 149 157 164 153 147 155 167 159
174 173 131 177 163 154 158 168 170 158 159 170 151 146 123 164 122 135 148 141 110 137 136 149 139 140 152 153 151 128 151 135 141 142 138 148 154 152 165 154 158 163 153 155 169
175 147 167 170 180 166 112 159 161 163 153 164 169 170 152 160 157 155 159 153 135 148 123 134 149 155 148 155 125 149 140 140 153 151 154 138 151 166 159 149 138 157 159 168 170
155 170 158 179 150 170 176 167 119 162 157 152 158 158 158 163 157 146 158 147 151 160 163 139 155 144 150 155 158 147 132 158 148 158 148 144 160 167 144 149 163 149 143 168 162
167 173 147 173 165 172 149 154 149 150 154 160 161 146 161 162 158 169 153 154 163 140 152 164 163 161 154 163 162 166 163 154 155 163 160 163 162 161 164 150 160 158 155 170 142
182 170 166 172 177 154 165 172 140 179 171 163 170 154 150 147 149 169 158 153 152 157 155 152 157 160 162 161 157 164 167 162 158 162 161 155 160 155 150 161 135 170 124 165 122
194 183 182 171 176 173 169 167 172 169 155 128 172 170 143 166 161 165 164 167 154 151 156 154 162 159 152 156 152 153 155 155 159 156 156 159 154 168 174 172 168 155 175 139 178
188 183 192 179 169 173 161 150 170 165 174 170 158 158 175 166 166 169 169 171 158 152 152 137 152 152 155 160 162 167 155 158 154 159 158 167 173 142 168 164 173 180 163 179 183
176 183 185 192 179 169 167 173 166 172 172 176 170 163 173 170 148 174 153 157 162 164 169 171 169 169 172 171 167 156 155 169 156 167 177 169 170 174 167 184 185 185 172 148 139
180 173 177 186 191 191 177 184 174 169 163 164 171 168 163 167 170 180 156 104 179 176 164 155 159 160 164 167 169 169 124 175 168 160 167 181 179 191 177 185 187 201 201 169 134
204 187 178 176 182 186 183 192 189 147 176 169 167 170 167 167 169 169 174 177 173 172 174 175 174 175 175 173 161 171 168 163 181 178 144 182 176 183 185 177 212 223 215 228 169
184 189 199 180 173 180 181 185 182 183 184 185 173 176 159 139 166 165 166 167 170 174 173 172 169 166 170 177 167 166 179 169 165 176 176 169 184 209 225 189 196 195 185 191 175
203 192 183 201 180 179 173 181 179 181 183 178 181 165 183 180 181 182 170 137 150 175 183 169 163 180 167 160 137 173 184 170 174 175 188 191 211 192 205 207 208 210 210 210 190
191 196 205 185 198 186 177 182 175 178 175 180 177 178 177 179 162 174 176 175 181 131 180 184 173 174 173 157 164 174 182 183 188 183 205 193 203 208 208 216 214 211 206 215 220
193 192 193 204 194 182 193 195 184 177 179 178 174 169 176 177 176 182 173 150 163 166 165 164 165 168 181 183 180 189 189 203 202 191 193 209 203 206 214 214 220 212 209 224 223
187 195 192 194 195 203 192 184 180 205 191 176 175 174 181 177 175 177 182 182 181 179 181 184 180 176 177 195 206 205 190 186 200 203 203 204 201 202 206 219 225 219 212 204 211
197 190 197 189 195 193 202 204 201 191 184 193 200 191 184 187 186 187 185 182 181 181 180 182 185 196 196 186 182 190 194 197 203 200 200 204 200 204 217 207 226 211 241 236 199
193 199 187 196 191 190 198 196 200 195 192 191 188 187 190 189 187 189 196 197 197 197 196 191 187 184 191 196 191 194 188 201 192 195 192 196 205 197 224 226 202 211 218 218 257
196 198 191 192 187 197 191 191 193 188 190 192 193 193 189 189 189 189 189 184 185 190 190 189 193 191 193 192 197 192 194 205 198 194 196 195 193 198 202 218 220 205 204 212 211
201 194 197 189 204 191 195 200 199 191 183 188 187 191 192 192 189 189 190 195 192 191 194 191 191 193 194 191 186 194 186 200 195 190 190 198 192 182 190 208 216 216 213 202 207
216 196 197 195 197 203 203 181 185 192 194 202 190 188 183 190 197 198 193 193 193 192 194 194 187 192 192 195 195 192 193 188 193 192 192 194 195 190 191 200 213 215 192 203 203
196 210 193 208 194 196 193 201 195 187 184 193 194 194 194 192 192 189 180 214 196 190 191 193 193 193 191 196 193 185 182 191 191 201 187 191 184 187 187 190 209 203 203 201 202
218 206 207 201 202 199 192 190 191 197 200 197 190 188 189 184 190 193 198 192 195 189 195 182 191 183 187 180 184 189 181 192 192 186 191 192 193 189 185 190 196 202 191 190 190
228 208 210 208 204 191 199 194 188 190 174 173 183 191 189 186 189 189 194 194 191 187 187 187 189 187 185 184 184 194 194 190 190 194 196 192 199 195 186 192 186 194 209 198 203
236 222 209 215 210 203 193 196 189 175 189 193 180 179 184 179 187 198 187 189 183 180 181 178 177 179 183 187 194 191 186 189 177 183 188 201 198 179 190 186 191 194 209 213 213
244 236 225 208 211 210 183 191 189 196 191 172 187 174 177 191 188 184 161 194 187 178 180 183 184 190 186 184 188 189 181 184 186 185 197 190 181 186 186 183 189 193 206 215 210
Wind_Speed
66 66 65 67 67 67 65 62 59 60 57 52 54 56 49 46 49 47 45 45 44 43 43 42 44 45 33 36 38 42 45 40 50 30 38 39 42 38 42 40 39 44 39 43 49
66 65 67 69 65 66 68 65 65 63 58 60 57 54 40 43 38 42 46 39 47 43 45 46 38 44 44 46 44 36 50 46 49 51 44 43 44 41 44 45 43 39 47 52 47
70 70 58 70 74 70 69 69 68 65 63 64 60 60 50 56 50 54 52 51 44 49 49 46 48 49 48 46 45 51 47 52 51 48 52 50 50 50 47 48 55 52 49 45 58
75 70 74 73 69 74 50 70 70 69 65 66 66 64 59 58 59 58 56 54 51 52 49 51 52 51 48 48 47 45 51 50 51 50 50 48 45 54 44 43 47 58 55 60 60
73 76 72 72 70 75 73 76 50 72 69 65 65 64 60 62 63 57 60 55 54 55 54 54 54 52 53 51 51 51 54 51 46 50 55 48 49 49 41 46 59 51 43 61 50
80 79 74 77 79 76 74 75 64 69 67 71 69 64 66 64 66 64 59 58 59 56 57 58 56 55 56 53 54 54 58 51 50 60 58 53 54 45 51 43 58 61 57 66 30
84 84 82 81 78 76 81 77 70 72 74 70 69 67 65 64 64 67 63 60 58 57 57 57 56 60 54 54 53 54 56 50 56 58 58 51 54 49 47 54 44 64 31 61 34
83 86 87 85 82 81 80 81 79 79 75 61 75 75 64 73 71 70 69 68 62 60 60 58 65 61 55 55 54 50 51 52 57 55 53 57 50 64 66 63 59 50 69 44 69
81 83 82 89 86 85 84 77 82 81 79 77 75 73 75 74 74 74 72 72 68 63 62 56 60 59 59 62 63 64 55 59 55 62 59 67 67 45 61 55 62 60 60 73 72
84 83 83 85 91 87 86 86 84 83 81 79 78 79 78 76 67 73 67 68 69 69 70 70 68 69 69 69 66 62 57 67 54 68 72 65 66 65 57 65 63 59 58 43 43
90 88 86 85 86 88 89 90 86 86 82 80 82 81 79 78 76 72 74 43 71 74 72 64 70 70 70 72 72 70 44 71 68 58 65 76 73 71 60 64 66 65 49 48 32
89 94 91 88 86 85 85 82 87 81 89 87 84 84 82 81 78 77 76 76 75 75 73 71 76 74 74 73 65 72 69 64 74 73 50 75 73 70 71 54 55 48 45 34 46
94 92 95 93 91 89 86 85 85 85 84 84 87 87 77 71 81 81 81 79 78 77 77 75 75 73 71 75 71 70 76 66 67 72 74 70 81 73 57 60 53 45 47 40 47
92 95 95 93 95 93 90 89 88 85 84 85 82 79 78 80 80 78 77 65 71 79 74 77 77 75 76 71 54 72 76 70 72 74 78 65 64 72 59 55 48 43 43 39 44
94 93 93 97 92 97 97 94 92 90 84 87 82 81 81 78 77 81 82 80 79 61 75 79 80 78 75 68 73 80 79 76 76 74 65 71 63 58 54 49 44 41 40 35 35
97 96 93 91 97 98 96 100 98 92 85 88 83 85 83 85 84 82 83 76 79 79 78 79 78 77 81 79 79 79 78 71 66 67 67 55 56 57 42 44 40 40 40 30 32
101 99 96 94 94 96 100 100 95 89 91 89 87 90 88 88 88 85 84 84 85 82 83 86 82 80 80 79 71 66 71 69 63 59 56 52 55 58 49 40 36 37 41 46 35
104 102 99 98 96 98 97 97 92 85 88 90 88 94 94 93 95 90 87 82 84 82 84 82 83 78 74 72 73 69 66 62 57 54 50 48 48 50 39 37 34 42 33 30 47
105 104 101 103 100 99 98 92 80 83 87 92 90 87 87 88 87 84 79 80 80 79 78 78 77 77 74 67 69 66 66 59 57 54 52 53 45 47 33 26 33 36 37 30 36
108 104 104 106 103 103 97 86 84 86 90 91 84 81 84 87 86 85 81 80 81 80 77 76 72 73 70 65 61 67 62 51 50 49 47 49 49 51 37 22 24 29 42 32 35
110 105 110 105 105 103 92 88 88 88 92 87 84 83 83 84 86 82 79 76 75 75 72 71 68 70 67 64 64 62 65 56 50 47 46 44 51 56 48 36 27 30 37 36 35
114 107 112 108 104 96 92 91 90 90 93 89 86 84 80 85 86 83 79 77 72 74 72 71 69 67 68 66 62 61 59 60 51 49 44 44 45 65 49 43 39 25 22 34 39
93 114 109 111 101 96 94 92 94 92 89 86 81 82 82 84 82 80 75 68 70 71 71 70 68 69 69 67 62 60 60 60 56 51 47 44 45 56 55 47 42 28 31 42 42
119 113 115 111 104 101 96 95 92 92 90 86 81 82 82 81 78 78 72 68 72 71 71 69 67 65 65 67 65 59 60 60 58 52 53 50 51 52 52 56 45 27 28 39 47
119 108 116 113 103 94 98 95 93 92 86 78 79 84 85 83 79 78 75 68 68 70 66 69 69 66 67 68 69 63 59 59 58 61 58 55 52 53 51 57 56 41 46 43 49
122 116 109 115 107 106 97 96 96 89 94 88 85 89 86 80 78 79 75 68 65 66 67 67 72 72 67 68 67 64 58 61 60 64 58 57 55 42 54 60 65 60 50 50 53
118 118 117 111 109 107 90 98 94 98 94 83 92 85 80 84 78 77 70 71 67 68 70 71 71 71 67 68 65 58 66 68 66 66 61 52 42 53 56 59 69 68 60 54 55
Wind_Direction
223 224 227 228 232 233 235 234 238 237 241 238 240 244 246 244 247 249 252 250 258 261 262 265 267 274 277 280 283 287 286 294 291 297 303 302 306 312 315 318 318 318 322 324 326
225 228 226 228 231 232 236 234 239 239 239 242 242 241 252 248 257 257 254 258 257 261 261 263 270 273 276 278 282 284 284 294 293 299 305 303 303 311 317 318 312 312 317 324 326
227 228 236 228 230 232 234 236 239 239 242 243 240 241 244 246 250 248 249 249 260 257 257 267 265 268 275 276 280 283 289 286 290 293 300 304 309 314 318 316 317 319 317 323 327
226 230 228 229 232 233 241 237 238 239 240 242 245 246 244 248 247 251 253 254 255 258 260 259 267 269 272 277 280 280 279 286 290 300 296 298 301 302 318 305 305 315 315 319 323
230 228 233 231 235 232 234 236 236 239 240 240 243 244 247 246 250 247 254 251 257 261 263 259 266 266 268 274 278 278 281 285 289 294 286 297 300 308 301 311 311 307 309 315 318
230 229 233 231 230 234 235 236 238 238 238 243 245 244 247 247 249 252 253 255 258 257 260 265 268 272 268 275 274 279 280 286 290 285 289 301 302 305 308 305 310 310 312 316 292
227 230 232 231 231 236 233 238 239 240 241 243 242 242 242 243 246 252 252 254 256 260 262 263 269 268 273 274 274 277 283 283 285 292 292 294 303 299 302 305 303 307 299 314 298
229 230 229 231 230 231 235 237 240 240 238 245 244 247 243 248 251 253 255 256 255 256 261 263 266 269 270 272 270 273 277 282 284 284 289 294 295 299 303 304 307 309 311 295 308
230 230 231 230 234 233 235 239 238 239 243 242 243 246 248 249 252 254 256 258 257 256 258 261 263 266 269 272 274 278 277 279 281 286 289 294 294 293 301 302 306 308 311 316 317
232 232 231 231 230 234 236 233 237 239 242 244 244 245 249 249 246 255 252 255 259 261 263 265 268 271 272 274 275 274 276 282 280 286 290 292 294 298 299 301 303 307 306 292 301
230 233 233 233 233 234 235 234 236 238 242 242 246 247 248 250 252 254 253 254 261 261 263 264 267 268 271 274 276 278 273 283 285 287 292 293 297 300 299 303 305 301 295 290 291
228 229 232 234 235 234 234 235 236 241 238 240 243 245 246 248 252 253 256 257 260 262 264 265 265 269 272 274 275 279 280 283 287 291 279 291 294 295 295 296 295 293 287 273 279
232 230 229 232 235 234 235 237 236 236 239 240 241 244 247 250 251 251 253 256 258 261 261 264 266 268 270 273 275 279 281 283 286 288 290 291 292 292 291 293 290 290 283 276 275
231 231 233 230 232 234 236 236 236 237 238 240 242 246 245 247 249 252 254 256 258 262 264 264 266 267 270 272 270 277 281 282 285 287 287 285 287 291 291 292 289 282 274 273 267
231 231 231 233 230 232 236 234 237 237 238 240 243 245 245 246 251 251 253 255 256 259 261 260 265 269 270 272 276 278 280 281 283 285 284 287 289 288 290 293 289 283 277 271 263
231 231 232 232 232 234 234 233 235 237 237 242 243 246 246 247 248 246 252 255 257 259 261 263 266 268 271 273 275 277 279 277 279 282 284 284 285 282 290 283 288 286 281 273 266
234 231 231 232 232 233 234 238 239 234 236 242 242 245 243 245 249 250 250 252 254 257 259 261 264 267 269 270 270 271 275 279 278 282 283 282 283 285 285 288 293 285 271 273 261
230 234 231 234 232 233 234 235 236 237 240 239 239 240 245 245 249 249 251 253 256 256 259 262 264 264 266 270 273 272 275 275 278 280 279 280 282 285 299 292 293 275 285 278 272
230 230 234 231 234 235 234 236 236 237 239 241 240 242 244 247 247 248 248 250 252 253 255 258 262 265 268 267 271 272 273 272 277 274 276 279 282 277 299 302 292 306 305 291 299
229 229 230 233 236 234 237 236 235 237 239 242 242 242 244 247 247 250 250 252 255 256 257 260 261 265 264 268 267 270 271 270 270 274 280 282 285 284 279 296 310 305 307 301 293
228 230 231 233 232 236 236 234 233 236 241 241 244 243 244 247 250 250 252 250 253 256 259 259 261 262 264 265 266 268 275 273 273 274 280 287 284 276 282 309 313 316 313 310 308
227 230 232 232 233 234 233 237 237 236 239 240 242 244 246 246 247 248 248 250 254 256 256 258 262 261 263 264 267 269 270 274 277 280 279 285 292 288 293 306 316 321 266 300 301
231 227 233 230 233 232 232 233 235 239 241 241 240 243 245 246 248 251 252 249 251 254 257 257 259 260 263 266 266 268 274 278 277 280 279 284 277 286 295 298 310 315 309 311 307
225 229 229 232 230 231 232 233 235 236 238 240 241 244 245 247 249 250 249 250 251 253 254 260 257 263 265 269 270 269 270 276 278 280 281 287 284 290 292 304 305 305 295 306 299
224 228 228 231 230 234 232 234 236 238 240 243 241 244 245 246 247 250 249 247 248 253 254 259 263 262 264 265 269 272 272 276 282 284 285 282 290 291 294 302 302 302 304 304 307
222 225 228 229 229 230 233 232 235 238 238 238 239 241 243 245 247 248 251 249 251 256 258 256 259 260 261 263 265 271 279 280 273 278 281 288 293 284 298 297 297 296 302 306 307
221 223 223 229 229 229 229 233 235 237 239 236 239 244 246 245 248 251 247 254 251 251 254 256 259 262 267 270 270 273 275 277 278 279 284 286 285 289 292 293 294 297 302 301 305